Location: Peebles
(55.6412°N, 3.1714°W)
Time: 14:12:09
(UTC+01:00)

Cosmos 2219 - Pass Details

Date: 26 September 2021
Orbit: 834 x 859 km, 71.1° (Epoch: 17 October)

Event Time Altitude Azimuth Distance (km) Brightness Sun altitude
Rises 22:30:41 0° 325° (NW) 3,415 7.6 -27.8°
Reaches altitude 10° 22:33:09 10° 324° (NW) 2,473 6.6 -28.0°
Enters shadow 22:38:41 73° 252° (WSW) 879 3.2 -28.5°
